sat.trackr.live / text

‹ back to catalog

STARLINK-36239

NORAD 67196 · 2025-304E

PAYLOAD ACTIVE UNKNOWN

§ Identity

Operator
Country
US
Launch date
2025-12-17
Launch site
AFWTR
Launch vehicle
Mass (kg)
RCS (m²)

Purposes: comms

External: N2YO · Heavens-Above · Gunter

§ Orbital elements

Epoch: 2026-09-19T18:48:41.409504Z

Period
96.11 min
Inclination
70.0012°
Eccentricity
0.0003168
Mean motion
14.98337362 rev/d
Perigee alt
569.8 km
Apogee alt
574.2 km
Semi-major
6,950.2 km
B*
1.4904e-4
RAAN
45.2563°
Arg perigee
266.5026°
Mean anomaly
93.5771°
Rev number
4,295

§ Raw data

STARLINK-362391 67196U 25304E   26262.78381261  .00001686  00000+0  14904-3 0  99982 67196  70.0012  45.2563 0003168 266.5026  93.5771 14.98337362 42959

JSON: /api/v1/satellites/67196 · /tle

For live sub-satellite position, see the globe view (requires WebGL).

§ Visibility from observer

Set your observer location to see the next 7 days of passes ≥ 10°. The values pass through the URL so the page stays shareable.

No JS? Fill the form by hand. The geolocation button needs JavaScript.